When you browse on this site, cookies collect data to enhance your experience and personalize the content and advertising you see.
Visit our Privacy Policy to learn more. By continuing to use the site, you agree to this use of cookies and data.
  • In Spain
  • List of Countries
  • For 7 days
  • Water Temperature
  • Satellite Maps
  • Weather Map
  • Weather Widgets
  • user-avatar
    Login

    Hourly Weather Vratsa

    Today, 17 November, Saturday

    Time Temperature Precipitation Wind Pressure Humidity
    00:00 -2°C° 0 mm 2 mps 716 mmHg 74%
    01:00 -2°C° 0 mm 2 mps 716 mmHg 75%
    02:00 -2°C° 0 mm 3 mps 716 mmHg 73%
    03:00 -4°C° 0 mm 3 mps 716 mmHg 74%
    04:00 -4°C° 0 mm 3 mps 716 mmHg 75%
    05:00 -4°C° 0 mm 3 mps 716 mmHg 76%
    06:00 -4°C° 0 mm 3 mps 716 mmHg 76%
    07:00 -4°C° 0 mm 3 mps 716 mmHg 76%
    08:00 -5°C° 0 mm 3 mps 716 mmHg 76%
    09:00 -4°C° 0 mm 3 mps 716 mmHg 71%
    10:00 -2°C° 0 mm 3 mps 716 mmHg 67%
    11:00 -1°C° 0 mm 3 mps 716 mmHg 62%
    12:00 0°C° 0 mm 3 mps 716 mmHg 61%
    13:00 0°C° 0 mm 3 mps 716 mmHg 61%
    14:00 +1°C° 0 mm 3 mps 716 mmHg 60%
    15:00 0°C° 0 mm 3 mps 716 mmHg 64%
    16:00 0°C° 0 mm 3 mps 715 mmHg 69%
    17:00 -1°C° 0 mm 3 mps 715 mmHg 73%
    18:00 -1°C° 0 mm 3 mps 715 mmHg 76%
    19:00 -2°C° 0 mm 3 mps 716 mmHg 79%
    20:00 -2°C° 0 mm 3 mps 716 mmHg 82%
    21:00 -2°C° 0 mm 2 mps 716 mmHg 84%
    22:00 -2°C° 0 mm 2 mps 716 mmHg 85%
    23:00 -3°C° 0 mm 2 mps 716 mmHg 86%

    Tomorrow, 18 November, Sunday

    Time Temperature Precipitation Wind Pressure Humidity
    00:00 -3°C° 0 mm 2 mps 715 mmHg 86%
    01:00 -3°C° 0 mm 2 mps 715 mmHg 86%
    02:00 -3°C° 0 mm 2 mps 715 mmHg 86%
    03:00 -3°C° 0 mm 2 mps 715 mmHg 86%
    04:00 -2°C° 0 mm 2 mps 714 mmHg 86%
    05:00 -2°C° 0 mm 2 mps 714 mmHg 86%
    06:00 -2°C° 0 mm 2 mps 714 mmHg 86%
    07:00 -2°C° 0 mm 2 mps 713 mmHg 85%
    08:00 -2°C° 0 mm 2 mps 713 mmHg 85%
    09:00 -1°C° 0 mm 2 mps 713 mmHg 81%
    10:00 +1°C° 0 mm 2 mps 713 mmHg 78%
    11:00 +1°C° 0 mm 3 mps 713 mmHg 75%
    12:00 +1°C° 0 mm 3 mps 712 mmHg 75%
    13:00 +1°C° 0 mm 3 mps 711 mmHg 74%
    14:00 +1°C° 0 mm 3 mps 711 mmHg 74%
    15:00 +2°C° 0.4 mm 2 mps 710 mmHg 78%
    16:00 +1°C° 0.4 mm 2 mps 709 mmHg 82%
    17:00 +1°C° 0.4 mm 2 mps 709 mmHg 86%
    18:00 +1°C° 1.3 mm 2 mps 708 mmHg 88%
    19:00 -1°C° 1.3 mm 2 mps 708 mmHg 91%
    20:00 +1°C° 1.3 mm 1 mps 707 mmHg 94%
    21:00 +1°C° 1.3 mm 1 mps 707 mmHg 95%
    22:00 +1°C° 1.3 mm 1 mps 706 mmHg 95%
    23:00 +1°C° 1.3 mm 1 mps 706 mmHg 96%

    Day after tomorrow, 19 November, Monday

    Time Temperature Precipitation Wind Pressure Humidity
    00:00 +1°C° 1.3 mm 1 mps 706 mmHg 97%
    01:00 +1°C° 1.3 mm 1 mps 705 mmHg 97%
    02:00 +1°C° 1.3 mm 1 mps 705 mmHg 97%
    03:00 +1°C° 0.6 mm 1 mps 705 mmHg 97%
    04:00 +1°C° 0.6 mm 1 mps 704 mmHg 97%
    05:00 +1°C° 0.6 mm 1 mps 704 mmHg 97%
    06:00 +1°C° 0.1 mm 1 mps 704 mmHg 97%
    07:00 +1°C° 0.1 mm 1 mps 705 mmHg 97%
    08:00 +1°C° 0.1 mm 1 mps 705 mmHg 97%
    09:00 +1°C° 0 mm 1 mps 705 mmHg 97%
    10:00 +2°C° 0 mm 1 mps 705 mmHg 96%
    11:00 +3°C° 0 mm 1 mps 706 mmHg 96%
    12:00 +3°C° 0 mm 1 mps 706 mmHg 96%
    13:00 +3°C° 0 mm 1 mps 706 mmHg 95%
    14:00 +3°C° 0 mm 1 mps 706 mmHg 95%
    15:00 +3°C° 0 mm 1 mps 706 mmHg 95%
    16:00 +3°C° 0 mm 1 mps 706 mmHg 96%
    17:00 +2°C° 0 mm 1 mps 707 mmHg 97%
    18:00 +2°C° 0 mm 1 mps 707 mmHg 97%
    19:00 +2°C° 0 mm 1 mps 707 mmHg 96%
    20:00 +2°C° 0 mm 1 mps 708 mmHg 96%
    21:00 +1°C° 0 mm 1 mps 708 mmHg 96%
    22:00 +1°C° 0 mm 1 mps 708 mmHg 96%
    23:00 +1°C° 0 mm 1 mps 709 mmHg 95%

    20 November, Tuesday

    Time Temperature Precipitation Wind Pressure Humidity
    00:00 +1°C° 0 mm 1 mps 709 mmHg 95%
    01:00 +2°C° 0 mm 1 mps 709 mmHg 96%
    02:00 +1°C° 0 mm 2 mps 709 mmHg 96%
    03:00 +1°C° 0.4 mm 2 mps 708 mmHg 96%
    04:00 +1°C° 0.4 mm 2 mps 708 mmHg 96%
    05:00 +1°C° 0.4 mm 2 mps 708 mmHg 96%
    06:00 +1°C° 0.3 mm 2 mps 708 mmHg 96%
    07:00 +1°C° 0.3 mm 2 mps 708 mmHg 96%
    08:00 0°C° 0.3 mm 3 mps 708 mmHg 95%
    09:00 +1°C° 0.1 mm 3 mps 708 mmHg 94%
    10:00 +2°C° 0.1 mm 3 mps 708 mmHg 92%
    11:00 +3°C° 0.1 mm 3 mps 708 mmHg 90%
    12:00 +4°C° 0.2 mm 3 mps 708 mmHg 90%
    13:00 +4°C° 0.2 mm 3 mps 707 mmHg 89%
    14:00 +6°C° 0.2 mm 2 mps 707 mmHg 88%
    15:00 +5°C° 0.2 mm 2 mps 707 mmHg 89%
    16:00 +5°C° 0.2 mm 2 mps 706 mmHg 91%
    17:00 +5°C° 0.2 mm 2 mps 706 mmHg 92%
    18:00 +5°C° 0.1 mm 2 mps 705 mmHg 93%
    19:00 +5°C° 0.1 mm 2 mps 705 mmHg 93%
    20:00 +5°C° 0.1 mm 2 mps 705 mmHg 94%
    21:00 +5°C° 0.3 mm 2 mps 705 mmHg 95%
    22:00 +5°C° 0.3 mm 2 mps 705 mmHg 95%
    23:00 +5°C° 0.3 mm 2 mps 704 mmHg 96%

    21 November, Wednesday

    Time Temperature Precipitation Wind Pressure Humidity
    00:00 +5°C° 0.2 mm 2 mps 704 mmHg 96%
    01:00 +6°C° 0.2 mm 1 mps 704 mmHg 96%
    02:00 +6°C° 0.2 mm 1 mps 704 mmHg 97%
    03:00 +6°C° 0 mm 1 mps 704 mmHg 97%
    04:00 +6°C° 0 mm 1 mps 704 mmHg 96%
    05:00 +6°C° 0 mm 1 mps 704 mmHg 96%
    06:00 +6°C° 0 mm 1 mps 704 mmHg 96%
    07:00 +6°C° 0 mm 1 mps 705 mmHg 96%
    08:00 +6°C° 0 mm 1 mps 705 mmHg 95%
    09:00 +8°C° 0 mm 1 mps 705 mmHg 91%
    10:00 +9°C° 0 mm 1 mps 706 mmHg 87%
    11:00 +10°C° 0 mm 1 mps 706 mmHg 82%
    12:00 +11°C° 0 mm 1 mps 706 mmHg 78%
    13:00 +12°C° 0 mm 1 mps 706 mmHg 75%
    14:00 +13°C° 0 mm 1 mps 706 mmHg 71%
    15:00 +12°C° 0 mm 1 mps 706 mmHg 76%
    16:00 +11°C° 0 mm 1 mps 706 mmHg 81%
    17:00 +8°C° 0 mm 0 mps 706 mmHg 86%
    18:00 +8°C° 0 mm 0 mps 707 mmHg 87%
    19:00 +8°C° 0 mm 0 mps 707 mmHg 87%
    20:00 +7°C° 0 mm 0 mps 708 mmHg 88%
    21:00 +7°C° 0 mm 0 mps 708 mmHg 88%
    22:00 +7°C° 0 mm 0 mps 708 mmHg 88%
    23:00 +7°C° 0 mm 0 mps 708 mmHg 88%

    22 November, Thursday

    Time Temperature Precipitation Wind Pressure Humidity
    00:00 +7°C° 0 mm 0 mps 709 mmHg 88%
    01:00 +7°C° 0 mm 0 mps 709 mmHg 89%
    02:00 +6°C° 0 mm 0 mps 709 mmHg 89%
    03:00 +6°C° 0 mm 0 mps 709 mmHg 90%
    04:00 +7°C° 0 mm 1 mps 709 mmHg 91%
    05:00 +7°C° 0 mm 1 mps 710 mmHg 92%
    06:00 +7°C° 0 mm 1 mps 710 mmHg 92%
    07:00 +7°C° 0 mm 1 mps 710 mmHg 93%
    08:00 +7°C° 0 mm 1 mps 711 mmHg 94%
    09:00 +7°C° 0 mm 1 mps 711 mmHg 91%
    10:00 +8°C° 0 mm 1 mps 712 mmHg 87%
    11:00 +8°C° 0 mm 2 mps 712 mmHg 84%
    12:00 +8°C° 0 mm 2 mps 712 mmHg 84%
    13:00 +8°C° 0 mm 2 mps 712 mmHg 83%
    14:00 +8°C° 0 mm 2 mps 712 mmHg 82%
    15:00 +7°C° 0 mm 2 mps 712 mmHg 84%
    16:00 +7°C° 0 mm 2 mps 712 mmHg 86%
    17:00 +6°C° 0 mm 2 mps 712 mmHg 88%
    18:00 +6°C° 0 mm 2 mps 712 mmHg 89%
    19:00 +5°C° 0 mm 2 mps 713 mmHg 89%
    20:00 +5°C° 0 mm 2 mps 713 mmHg 89%
    21:00 +5°C° 0 mm 2 mps 713 mmHg 89%
    22:00 +5°C° 0 mm 2 mps 713 mmHg 89%
    23:00 +5°C° 0 mm 2 mps 714 mmHg 89%
    Show more